Hourly Data Report for August 17, 2020

SVARTEVAEG
NUNAVUT
Current Station Operator: ECCC - MSC

81°09'39.000" N
91°48'59.060" W
72.00 m
2403833
71872
NSG

Download Data

Hourly Data (August 2020)
Hourly Data Report for August 17, 2020
TIME Temp Definition
°C
Dew Point Definition
°C
Rel Hum Definition
%
Wind Dir Definition
10's deg

Wind Spd Definition
km/h
Visibility Definition
km
Stn Press Definition
kPa
Hmdx Definition


Wind Chill Definition


Weather Definition


00:00 2.2 0.3 87 13 2   100.83     LegendNANA
01:00 2.9 0.6 85 12 4   100.86     LegendNANA
02:00 2.8 0.7 86 18 6   100.87     LegendNANA
03:00 3.2 1.0 85 16 8   100.89     LegendNANA
04:00 3.7 1.2 84 16 5   100.91     LegendNANA
05:00 4.1 1.7 84 11 5   100.91     LegendNANA
06:00 4.0 1.7 85 11 3   100.93     LegendNANA
07:00 4.1 1.7 84 0 1   100.92     LegendNANA
08:00 4.8 1.8 81 10 6   100.93     LegendNANA
09:00 5.7 1.9 77 11 5   100.94     LegendNANA
10:00 5.3 1.2 75 6 2   100.92     LegendNANA
11:00 4.9 1.5 79 6 2   100.92     LegendNANA
12:00 5.9 1.3 73 12 6   100.91     LegendNANA
13:00 4.6 1.1 78 35 10   100.90     LegendNANA
14:00 5.6 1.4 75 34 5   100.90     LegendNANA
15:00 4.1 1.4 82 35 9   100.88     LegendNANA
16:00 5.4 1.3 75 35 9   100.87     LegendNANA
17:00 5.6 0.8 71 34 10   100.84     LegendNANA
18:00 5.4 0.9 72 35 9   100.80     LegendNANA
19:00 7.3 0.9 64 34 6   100.79     LegendNANA
20:00 7.2 0.2 61 35 13   100.76     LegendNANA
21:00 6.3 -0.1 64 34 14   100.73     LegendNANA
22:00 6.4 -0.5 61 34 15   100.72     LegendNANA
23:00 5.1 -0.2 68 34 14   100.71     LegendNANA

Notes on Data Quality.

Legend

  • E = Estimated
  • M = Missing
  • NA = Not Available*
  • [empty] = Indicates an unobserved value
Date modified: